When you browse on this site, cookies collect data to enhance your experience and personalize the content and advertising you see.
Visit our Privacy Policy to learn more. By continuing to use the site, you agree to this use of cookies and data.
  • In Latvia
  • List of Countries
  • For 7 days
  • Water Temperature
  • Weather Map
  • Weather Widgets
  • user-avatar
    Login

    Hourly Weather Yerevan

    Today, 19 August, Monday

    Time Temperature Precipitation Wind Pressure Humidity
    00:00 +28°C° 0 mm 3 mps 690 mmHg 34%
    01:00 +27°C° 0 mm 2 mps 690 mmHg 36%
    02:00 +26°C° 0 mm 2 mps 690 mmHg 37%
    03:00 +25°C° 0 mm 2 mps 689 mmHg 41%
    04:00 +25°C° 0 mm 2 mps 690 mmHg 40%
    05:00 +25°C° 0 mm 2 mps 690 mmHg 39%
    06:00 +25°C° 0 mm 2 mps 690 mmHg 39%
    07:00 +28°C° 0 mm 2 mps 691 mmHg 34%
    08:00 +30°C° 0 mm 2 mps 691 mmHg 28%
    09:00 +34°C° 0 mm 2 mps 691 mmHg 23%
    10:00 +36°C° 0 mm 2 mps 691 mmHg 21%
    11:00 +38°C° 0 mm 3 mps 692 mmHg 18%
    12:00 +40°C° 0 mm 3 mps 692 mmHg 15%
    13:00 +42°C° 0 mm 4 mps 692 mmHg 13%
    14:00 +43°C° 0 mm 4 mps 692 mmHg 12%
    15:00 +45°C° 0 mm 5 mps 692 mmHg 10%
    16:00 +42°C° 0 mm 5 mps 692 mmHg 13%
    17:00 +41°C° 0 mm 5 mps 692 mmHg 16%
    18:00 +39°C° 0 mm 6 mps 692 mmHg 18%
    19:00 +36°C° 0 mm 5 mps 692 mmHg 23%
    20:00 +34°C° 0 mm 4 mps 692 mmHg 27%
    21:00 +30°C° 0 mm 4 mps 692 mmHg 31%
    22:00 +29°C° 0 mm 3 mps 692 mmHg 32%
    23:00 +28°C° 0 mm 3 mps 692 mmHg 34%

    Tomorrow, 20 August, Tuesday

    Time Temperature Precipitation Wind Pressure Humidity
    00:00 +27°C° 0 mm 2 mps 692 mmHg 35%
    01:00 +26°C° 0 mm 2 mps 692 mmHg 36%
    02:00 +25°C° 0 mm 2 mps 692 mmHg 36%
    03:00 +24°C° 0 mm 2 mps 692 mmHg 37%
    04:00 +24°C° 0 mm 2 mps 692 mmHg 37%
    05:00 +24°C° 0 mm 1 mps 692 mmHg 36%
    06:00 +24°C° 0 mm 1 mps 693 mmHg 36%
    07:00 +27°C° 0 mm 1 mps 693 mmHg 31%
    08:00 +30°C° 0 mm 1 mps 693 mmHg 26%
    09:00 +32°C° 0 mm 2 mps 693 mmHg 20%
    10:00 +35°C° 0 mm 2 mps 693 mmHg 18%
    11:00 +37°C° 0 mm 2 mps 693 mmHg 15%
    12:00 +39°C° 0 mm 3 mps 693 mmHg 13%
    13:00 +41°C° 0 mm 4 mps 693 mmHg 11%
    14:00 +43°C° 0 mm 5 mps 693 mmHg 10%
    15:00 +45°C° 0 mm 6 mps 693 mmHg 8%
    16:00 +44°C° 0 mm 6 mps 692 mmHg 10%
    17:00 +41°C° 0 mm 6 mps 692 mmHg 11%
    18:00 +40°C° 0 mm 6 mps 692 mmHg 13%
    19:00 +36°C° 0 mm 5 mps 692 mmHg 18%
    20:00 +34°C° 0 mm 5 mps 692 mmHg 22%
    21:00 +30°C° 0 mm 4 mps 692 mmHg 27%
    22:00 +28°C° 0 mm 3 mps 692 mmHg 29%
    23:00 +26°C° 0 mm 2 mps 691 mmHg 32%

    Day after tomorrow, 21 August, Wednesday

    Time Temperature Precipitation Wind Pressure Humidity
    00:00 +25°C° 0 mm 2 mps 691 mmHg 35%
    01:00 +24°C° 0 mm 2 mps 691 mmHg 34%
    02:00 +24°C° 0 mm 2 mps 691 mmHg 34%
    03:00 +23°C° 0 mm 2 mps 691 mmHg 34%
    04:00 +23°C° 0 mm 2 mps 691 mmHg 33%
    05:00 +23°C° 0 mm 2 mps 691 mmHg 32%
    06:00 +23°C° 0 mm 1 mps 691 mmHg 31%
    07:00 +26°C° 0 mm 1 mps 692 mmHg 27%
    08:00 +29°C° 0 mm 1 mps 692 mmHg 22%
    09:00 +32°C° 0 mm 1 mps 692 mmHg 17%
    10:00 +35°C° 0 mm 2 mps 692 mmHg 15%
    11:00 +37°C° 0 mm 2 mps 692 mmHg 13%
    12:00 +39°C° 0 mm 3 mps 692 mmHg 11%
    13:00 +41°C° 0 mm 4 mps 691 mmHg 10%
    14:00 +42°C° 0 mm 5 mps 691 mmHg 9%
    15:00 +44°C° 0 mm 7 mps 691 mmHg 8%
    16:00 +42°C° 0 mm 6 mps 690 mmHg 10%
    17:00 +41°C° 0 mm 6 mps 690 mmHg 11%
    18:00 +40°C° 0 mm 6 mps 690 mmHg 12%
    19:00 +36°C° 0 mm 5 mps 690 mmHg 16%
    20:00 +33°C° 0 mm 5 mps 690 mmHg 20%
    21:00 +30°C° 0 mm 4 mps 690 mmHg 24%
    22:00 +28°C° 0 mm 3 mps 690 mmHg 27%
    23:00 +27°C° 0 mm 3 mps 689 mmHg 29%

    22 August, Thursday

    Time Temperature Precipitation Wind Pressure Humidity
    00:00 +25°C° 0 mm 2 mps 689 mmHg 31%
    01:00 +24°C° 0 mm 2 mps 689 mmHg 32%
    02:00 +23°C° 0 mm 2 mps 689 mmHg 33%
    03:00 +23°C° 0 mm 2 mps 688 mmHg 34%
    04:00 +21°C° 0 mm 2 mps 688 mmHg 34%
    05:00 +22°C° 0 mm 1 mps 688 mmHg 33%
    06:00 +22°C° 0 mm 1 mps 688 mmHg 33%
    07:00 +25°C° 0 mm 1 mps 689 mmHg 28%
    08:00 +28°C° 0 mm 1 mps 689 mmHg 23%
    09:00 +31°C° 0 mm 1 mps 689 mmHg 18%
    10:00 +35°C° 0 mm 2 mps 689 mmHg 15%
    11:00 +37°C° 0 mm 3 mps 689 mmHg 12%
    12:00 +40°C° 0 mm 4 mps 689 mmHg 10%
    13:00 +41°C° 0 mm 5 mps 689 mmHg 9%
    14:00 +42°C° 0 mm 5 mps 688 mmHg 9%
    15:00 +44°C° 0 mm 6 mps 688 mmHg 8%
    16:00 +41°C° 0 mm 6 mps 688 mmHg 10%
    17:00 +40°C° 0 mm 6 mps 688 mmHg 12%
    18:00 +39°C° 0 mm 7 mps 688 mmHg 14%
    19:00 +34°C° 0 mm 5 mps 688 mmHg 19%
    20:00 +30°C° 0 mm 4 mps 688 mmHg 25%
    21:00 +26°C° 0 mm 2 mps 688 mmHg 30%
    22:00 +25°C° 0 mm 2 mps 688 mmHg 31%
    23:00 +24°C° 0 mm 2 mps 688 mmHg 32%

    23 August, Friday

    Time Temperature Precipitation Wind Pressure Humidity
    00:00 +23°C° 0 mm 2 mps 688 mmHg 33%
    01:00 +23°C° 0 mm 2 mps 688 mmHg 34%
    02:00 +21°C° 0 mm 2 mps 688 mmHg 35%
    03:00 +21°C° 0 mm 1 mps 687 mmHg 36%
    04:00 +21°C° 0 mm 1 mps 688 mmHg 36%
    05:00 +21°C° 0 mm 1 mps 688 mmHg 35%
    06:00 +21°C° 0 mm 1 mps 688 mmHg 35%
    07:00 +24°C° 0 mm 1 mps 688 mmHg 30%
    08:00 +27°C° 0 mm 1 mps 689 mmHg 24%
    09:00 +30°C° 0 mm 2 mps 689 mmHg 19%
    10:00 +32°C° 0 mm 2 mps 689 mmHg 17%
    11:00 +35°C° 0 mm 2 mps 689 mmHg 15%
    12:00 +37°C° 0 mm 2 mps 689 mmHg 12%
    13:00 +38°C° 0 mm 2 mps 689 mmHg 12%
    14:00 +39°C° 0 mm 3 mps 689 mmHg 11%
    15:00 +40°C° 0 mm 4 mps 689 mmHg 10%
    16:00 +39°C° 0 mm 5 mps 689 mmHg 13%
    17:00 +38°C° 0 mm 6 mps 689 mmHg 16%
    18:00 +35°C° 0 mm 7 mps 688 mmHg 19%
    19:00 +33°C° 0 mm 6 mps 688 mmHg 24%
    20:00 +29°C° 0 mm 4 mps 689 mmHg 29%
    21:00 +26°C° 0 mm 3 mps 689 mmHg 34%
    22:00 +25°C° 0 mm 2 mps 689 mmHg 36%
    23:00 +24°C° 0 mm 2 mps 689 mmHg 38%

    24 August, Saturday

    Time Temperature Precipitation Wind Pressure Humidity
    00:00 +23°C° 0 mm 2 mps 689 mmHg 40%
    01:00 +23°C° 0 mm 2 mps 689 mmHg 41%
    02:00 +21°C° 0 mm 2 mps 689 mmHg 43%
    03:00 +22°C° 0 mm 1 mps 689 mmHg 44%
    04:00 +22°C° 0 mm 1 mps 689 mmHg 44%
    05:00 +22°C° 0 mm 1 mps 689 mmHg 44%
    06:00 +22°C° 0 mm 1 mps 689 mmHg 43%
    07:00 +25°C° 0 mm 1 mps 690 mmHg 37%
    08:00 +28°C° 0 mm 2 mps 690 mmHg 31%
    09:00 +30°C° 0 mm 2 mps 690 mmHg 25%
    10:00 +32°C° 0 mm 2 mps 690 mmHg 22%
    11:00 +35°C° 0 mm 2 mps 690 mmHg 20%
    12:00 +36°C° 0 mm 1 mps 690 mmHg 17%
    13:00 +38°C° 0 mm 2 mps 690 mmHg 15%
    14:00 +39°C° 0 mm 2 mps 690 mmHg 14%
    15:00 +40°C° 0 mm 2 mps 690 mmHg 12%
    16:00 +39°C° 0 mm 2 mps 689 mmHg 14%
    17:00 +38°C° 0 mm 3 mps 689 mmHg 15%
    18:00 +37°C° 0 mm 3 mps 689 mmHg 17%
    19:00 +34°C° 0 mm 3 mps 689 mmHg 23%
    20:00 +30°C° 0 mm 3 mps 689 mmHg 29%
    21:00 +28°C° 0 mm 3 mps 690 mmHg 35%
    22:00 +27°C° 0 mm 3 mps 690 mmHg 38%
    23:00 +26°C° 0 mm 2 mps 690 mmHg 41%
    Show more